This demonstration page uses our WeatherBlox Daily Observations layout. Learn more.

Left ArrowRight Arrow

Hourly Observations for May 30, 2015

Temp ( °F °C ) Dew Point ( °F °C ) Humidity (%) Winds ( mph kmh ) Pressure ( in mb ) Visibility ( mi km ) Precip ( " mm )
12:15 am 00:15 Mostly Cloudy 72 22 68 20 88 88 S 5 7 30.21 1023 10 16 N/A
12:35 am 00:35 Mostly Cloudy 70 21 68 20 94 94 SSW 3 6 30.21 1023 10 16 N/A
12:55 am 00:55 Mostly Cloudy 70 21 68 20 94 94 N N/A 30.18 1022 10 16 N/A
1:15 am 01:15 Partly Cloudy 70 21 68 20 94 94 SW 3 6 30.18 1022 10 16 N/A
1:35 am 01:35 Clear 70 21 68 20 94 94 SSW 3 6 30.18 1022 10 16 N/A
1:55 am 01:55 Clear 70 21 70 21 100 100 N N/A 30.21 1023 10 16 N/A
2:15 am 02:15 Clear 68 20 68 20 100 100 N N/A 30.21 1023 10 16 N/A
2:35 am 02:35 Clear 70 21 70 21 100 100 S 3 6 30.21 1023 10 16 N/A
2:55 am 02:55 Clear 70 21 70 21 100 100 N N/A 30.18 1022 10 16 N/A
3:15 am 03:15 Clear 70 21 70 21 100 100 SSE 3 6 30.18 1022 10 16 N/A
3:35 am 03:35 Clear 70 21 68 20 94 94 S 3 6 30.18 1022 10 16 N/A
3:55 am 03:55 Clear 70 21 70 21 100 100 S 7 11 30.18 1022 10 16 N/A
4:15 am 04:15 Clear 70 21 68 20 94 94 S 3 6 30.18 1022 10 16 N/A
4:35 am 04:35 Clear 68 20 68 20 100 100 S 3 6 30.18 1022 10 16 N/A
4:55 am 04:55 Clear 68 20 68 20 100 100 S 3 6 30.18 1022 10 16 N/A
5:15 am 05:15 Clear 68 20 68 20 100 100 S 6 9 30.18 1022 10 16 N/A
5:35 am 05:35 Partly Cloudy 68 20 68 20 100 100 S 5 7 30.18 1022 10 16 N/A
5:55 am 05:55 Cloudy 68 20 68 20 100 100 S 6 9 30.18 1022 10 16 N/A
6:15 am 06:15 Cloudy 68 20 68 20 100 100 S 6 9 30.21 1023 10 16 N/A
6:35 am 06:35 Cloudy 68 20 68 20 100 100 S 7 11 30.21 1023 7 11 N/A
6:55 am 06:55 Cloudy 68 20 68 20 100 100 S 8 13 30.21 1023 7 11 N/A
7:15 am 07:15 Cloudy 70 21 70 21 100 100 S 7 11 30.21 1023 7 11 N/A
7:35 am 07:35 Cloudy 70 21 70 21 100 100 S 6 9 30.21 1023 7 11 N/A
7:55 am 07:55 Cloudy 70 21 70 21 100 100 S 7 11 30.21 1023 10 16 N/A
8:15 am 08:15 Cloudy 70 21 70 21 100 100 S 7 11 30.21 1023 10 16 N/A
8:35 am 08:35 Cloudy 72 22 70 21 94 94 S 7 11 30.21 1023 10 16 N/A
8:55 am 08:55 Cloudy 73 23 70 21 89 89 S 8 13 30.21 1023 10 16 N/A
9:15 am 09:15 Mostly Cloudy 73 23 70 21 89 89 S 8 13 30.21 1023 10 16 N/A
9:35 am 09:35 Cloudy 77 25 70 21 79 79 S 10 17 30.21 1023 10 16 N/A
9:55 am 09:55 Mostly Cloudy 79 26 70 21 74 74 S 10 17 30.18 1022 10 16 N/A
10:15 am 10:15 Partly Cloudy 81 27 70 21 70 70 S 12 19 30.18 1022 10 16 N/A
10:35 am 10:35 Partly Cloudy 81 27 70 21 70 70 S 12 19 30.18 1022 10 16 N/A
10:55 am 10:55 Partly Cloudy 81 27 70 21 70 70 SSW 12 19 30.18 1022 10 16 N/A
11:15 am 11:15 Mostly Cloudy 82 28 70 21 66 66 SSW 9 15 30.18 1022 10 16 N/A
11:35 am 11:35 Mostly Cloudy 82 28 70 21 66 66 WSW 7 11 30.18 1022 10 16 N/A
11:55 am 11:55 Partly Cloudy 86 30 68 20 55 55 SSW 12 19 30.18 1022 10 16 N/A
12:15 pm 12:15 Sunny 86 30 68 20 55 55 S 9 15 30.15 1021 10 16 N/A
12:35 pm 12:35 Sunny 88 31 66 19 49 49 SSW 13 20 30.15 1021 10 16 N/A
12:55 pm 12:55 Mostly Cloudy 88 31 66 19 49 49 SSW 13 20 30.15 1021 10 16 N/A
1:15 pm 13:15 Mostly Cloudy 88 31 66 19 49 49 WSW 8 13 30.15 1021 10 16 N/A
1:35 pm 13:35 Partly Cloudy 90 32 66 19 46 46 SSW 15 24 30.09 1019 10 16 N/A
1:55 pm 13:55 Mostly Cloudy 90 32 66 19 46 46 SSW 16 26 30.09 1019 10 16 N/A
2:15 pm 14:15 Mostly Cloudy 88 31 66 19 49 49 S 17 28 30.12 1020 10 16 N/A
2:35 pm 14:35 Mostly Cloudy 88 31 66 19 49 49 S 17 28 30.12 1020 10 16 N/A
2:55 pm 14:55 Partly Cloudy 90 32 66 19 46 46 S 17 28 30.09 1019 10 16 N/A
3:15 pm 15:15 Sunny 88 31 64 18 46 46 S 17 28 30.09 1019 10 16 N/A
3:35 pm 15:35 Sunny 90 32 64 18 43 43 S 12 19 30.06 1018 10 16 N/A
3:55 pm 15:55 Partly Cloudy 90 32 64 18 43 43 S 16 26 30.06 1018 10 16 N/A
4:15 pm 16:15 Mostly Cloudy 90 32 66 19 46 46 S 18 30 30.06 1018 10 16 N/A
4:35 pm 16:35 Partly Cloudy 90 32 64 18 43 43 SSW 17 28 30.06 1018 10 16 N/A
4:55 pm 16:55 Sunny 88 31 64 18 46 46 SSW 13 20 30.09 1019 10 16 N/A
5:15 pm 17:15 Sunny 88 31 64 18 46 46 SSW 13 20 30.03 1017 10 16 N/A
5:35 pm 17:35 Sunny 86 30 64 18 49 49 S 15 24 30.06 1018 10 16 N/A
5:55 pm 17:55 Partly Cloudy 86 30 64 18 49 49 S 7 11 30.06 1018 10 16 N/A
6:15 pm 18:15 Partly Cloudy 86 30 64 18 49 49 S 8 13 30.06 1018 10 16 N/A
6:35 pm 18:35 Sunny 84 29 64 18 51 51 S 8 13 30.06 1018 10 16 N/A
6:55 pm 18:55 Sunny 84 29 64 18 51 51 S 6 9 30.06 1018 10 16 N/A
7:15 pm 19:15 Sunny 84 29 66 19 55 55 S 7 11 30.06 1018 10 16 N/A
7:35 pm 19:35 Sunny 84 29 64 18 51 51 S 9 15 30.06 1018 10 16 N/A
7:55 pm 19:55 Sunny 82 28 66 19 58 58 S 9 15 30.06 1018 10 16 N/A
8:15 pm 20:15 Sunny 82 28 66 19 58 58 S 9 15 30.06 1018 10 16 N/A
8:35 pm 20:35 Clear 81 27 66 19 62 62 S 7 11 30.06 1018 10 16 N/A
8:55 pm 20:55 Clear 81 27 66 19 62 62 S 7 11 30.06 1018 10 16 N/A
9:15 pm 21:15 Clear 81 27 66 19 62 62 S 6 9 30.06 1018 10 16 N/A
9:35 pm 21:35 Clear 79 26 66 19 65 65 S 7 11 30.06 1018 10 16 N/A
9:55 pm 21:55 Clear 79 26 66 19 65 65 S 7 11 30.06 1018 10 16 N/A
10:15 pm 22:15 Clear 79 26 66 19 65 65 S 6 9 30.06 1018 10 16 N/A
10:35 pm 22:35 Clear 77 25 66 19 69 69 SSW 13 20 30.06 1018 10 16 N/A
10:55 pm 22:55 Clear 77 25 68 20 74 74 SSW 13 20 30.06 1018 10 16 N/A
11:15 pm 23:15 Clear 77 25 68 20 74 74 SSW 13 20 30.09 1019 10 16 N/A
11:35 pm 23:35 Clear 75 24 68 20 78 78 SSW 12 19 30.09 1019 10 16 N/A
11:55 pm 23:55 Clear 75 24 68 20 78 78 S 10 17 30.09 1019 10 16 N/A

Powered by AerisWeather